DLH493 CYVR-EDDF

Flight info

Callsign DLH493
Flight time N/A
Altitude 37000
Route SEATN DCT 5230N12000W 58N110W 6130N10000W/N0486F330 64N090W 6530N08000W 6630N07000W/M084F330 DCT DARUB DCT 67N050W/M083F350 6630N04000W 6530N03000W 6430N02000W 6230N01000W DCT NALAN/N0480F350 DCT FORTY DCT ODMIX DCT CUTEL DCT LARDI DCT TOPPA DCT AMGOD DCT PETIK DCT SOGPO DCT DIXAT DIXAT1B
Aircraft A346/H-SDE2E3FGHIJ3J4J5M1RWXY/LB1D1

Departure

Time N/A
Airport Vancouver International Airport (CYVR)

Arrival

Time 2026-05-04 07:08
Airport Frankfurt Main Airport (EDDF)
Time Latitude Longitude Altitude Speed Heading
2026-05-04 04:28 64.07209 -17.39954 37046 ft 555 kts 112°
2026-05-04 04:28 64.05764 -17.31774 37041 ft 555 kts 112°
2026-05-04 04:29 64.02872 -17.15502 37042 ft 555 kts 112°
2026-05-04 04:29 63.99944 -16.99163 37042 ft 555 kts 112°
2026-05-04 04:30 63.97000 -16.82887 37017 ft 552 kts 112°
2026-05-04 04:30 63.94058 -16.66738 37042 ft 551 kts 112°
2026-05-04 04:31 63.91111 -16.50689 37043 ft 551 kts 112°
2026-05-04 04:31 63.88147 -16.34684 37046 ft 551 kts 113°
2026-05-04 04:32 63.85146 -16.18611 37046 ft 551 kts 113°
2026-05-04 04:32 63.82131 -16.02596 37041 ft 551 kts 113°
2026-05-04 04:33 63.79119 -15.86719 37042 ft 551 kts 113°
2026-05-04 04:33 63.76061 -15.70729 37075 ft 551 kts 113°
2026-05-04 04:34 63.72993 -15.54812 37048 ft 552 kts 114°
2026-05-04 04:34 63.69919 -15.38991 37039 ft 553 kts 114°
2026-05-04 04:35 63.66804 -15.23076 37041 ft 553 kts 114°
2026-05-04 04:35 63.63692 -15.07309 37036 ft 553 kts 114°
2026-05-04 04:36 63.60545 -14.91483 37036 ft 553 kts 114°
2026-05-04 04:36 63.57402 -14.75802 37051 ft 552 kts 114°
2026-05-04 04:37 63.51023 -14.44337 37035 ft 553 kts 114°
2026-05-04 04:38 63.47821 -14.28719 37029 ft 553 kts 115°
2026-05-04 04:38 63.44584 -14.13047 37038 ft 553 kts 115°
2026-05-04 04:39 63.41335 -13.97440 37032 ft 553 kts 115°
2026-05-04 04:39 63.38066 -13.81855 37022 ft 553 kts 115°
2026-05-04 04:40 63.34805 -13.66427 37027 ft 552 kts 115°
2026-05-04 04:40 63.31510 -13.50945 37033 ft 552 kts 115°
2026-05-04 04:41 63.28218 -13.35585 37033 ft 552 kts 115°
2026-05-04 04:41 63.24883 -13.20144 37027 ft 552 kts 116°
2026-05-04 04:42 63.21559 -13.04870 37032 ft 552 kts 116°
2026-05-04 04:42 63.18199 -12.89542 37055 ft 551 kts 116°
2026-05-04 04:43 63.14828 -12.74268 37009 ft 551 kts 116°
2026-05-04 04:43 63.11458 -12.59109 37023 ft 551 kts 116°
2026-05-04 04:44 63.08048 -12.43880 37032 ft 551 kts 116°
2026-05-04 04:44 63.04623 -12.28693 37027 ft 551 kts 116°
2026-05-04 04:45 63.01209 -12.13660 37030 ft 551 kts 116°
2026-05-04 04:47 62.89053 -11.60975 37015 ft 552 kts 117°
2026-05-04 04:47 62.85557 -11.46057 37019 ft 552 kts 117°
2026-05-04 04:48 62.82021 -11.31078 37022 ft 552 kts 117°
2026-05-04 04:49 62.73739 -10.96386 37026 ft 550 kts 117°
2026-05-04 04:49 62.70194 -10.81700 36969 ft 550 kts 118°
2026-05-04 04:50 62.66611 -10.66958 37002 ft 550 kts 118°
2026-05-04 04:50 62.63002 -10.52219 37001 ft 550 kts 118°
2026-05-04 04:51 62.59399 -10.37608 37008 ft 550 kts 118°
2026-05-04 04:51 62.55764 -10.22972 37021 ft 548 kts 118°
2026-05-04 04:52 62.52126 -10.08419 37005 ft 548 kts 119°
2026-05-04 04:52 62.48147 -9.94489 37003 ft 547 kts 126°
2026-05-04 04:53 62.43601 -9.81264 36996 ft 547 kts 128°
2026-05-04 04:53 62.39012 -9.68095 36996 ft 548 kts 128°
2026-05-04 04:54 62.34417 -9.54948 37001 ft 548 kts 128°
2026-05-04 04:54 62.29846 -9.41932 37003 ft 546 kts 128°
2026-05-04 04:55 62.25247 -9.28899 37000 ft 546 kts 128°
2026-05-04 04:55 62.20667 -9.15995 36952 ft 546 kts 128°
2026-05-04 04:56 62.16036 -9.03024 36988 ft 547 kts 128°
2026-05-04 04:56 62.11403 -8.90115 36986 ft 547 kts 129°
2026-05-04 04:57 62.06751 -8.77226 36986 ft 547 kts 129°
2026-05-04 04:57 62.02110 -8.64445 37018 ft 546 kts 129°
2026-05-04 04:58 61.97444 -8.51663 36978 ft 545 kts 129°
2026-05-04 04:58 61.92767 -8.38925 36966 ft 545 kts 129°
2026-05-04 04:59 61.88116 -8.26327 36973 ft 545 kts 129°
2026-05-04 04:59 61.83420 -8.13675 36975 ft 545 kts 129°
2026-05-04 05:00 61.78706 -8.01047 36967 ft 545 kts 129°
2026-05-04 05:01 61.71655 -7.82287 36973 ft 545 kts 130°
2026-05-04 05:01 61.66941 -7.69827 36953 ft 545 kts 130°
2026-05-04 05:02 61.62191 -7.57347 36960 ft 545 kts 130°
2026-05-04 05:02 61.57431 -7.44906 36962 ft 545 kts 130°
2026-05-04 05:03 61.52665 -7.32518 36965 ft 545 kts 130°
2026-05-04 05:04 61.43120 -7.07906 36957 ft 545 kts 130°
2026-05-04 05:04 61.38321 -6.95633 36960 ft 543 kts 130°
2026-05-04 05:06 61.19093 -6.47110 36951 ft 543 kts 131°
2026-05-04 05:07 61.14248 -6.35050 36931 ft 543 kts 131°
2026-05-04 05:07 61.09418 -6.23089 36972 ft 543 kts 131°
2026-05-04 05:09 60.87708 -5.69294 36925 ft 542 kts 131°
2026-05-04 05:10 60.82880 -5.57363 36925 ft 542 kts 131°
2026-05-04 05:10 60.78073 -5.45557 36962 ft 541 kts 131°
2026-05-04 05:11 60.73235 -5.33735 36922 ft 540 kts 131°
2026-05-04 05:11 60.68388 -5.21958 36921 ft 540 kts 131°
2026-05-04 05:12 60.63569 -5.10309 36883 ft 539 kts 131°
2026-05-04 05:12 60.58718 -4.98641 36904 ft 538 kts 131°
2026-05-04 05:13 60.53855 -4.87005 36897 ft 538 kts 132°
2026-05-04 05:13 60.49019 -4.75490 36899 ft 538 kts 132°
2026-05-04 05:14 60.44141 -4.63930 36914 ft 536 kts 132°
2026-05-04 05:14 60.39272 -4.52454 36899 ft 536 kts 132°
2026-05-04 05:15 60.34422 -4.41083 36880 ft 536 kts 132°
2026-05-04 05:15 60.29535 -4.29677 36888 ft 536 kts 132°
2026-05-04 05:16 60.24668 -4.18375 36893 ft 535 kts 133°
2026-05-04 05:16 60.19770 -4.07059 36891 ft 535 kts 133°
2026-05-04 05:17 60.14860 -3.95764 36905 ft 535 kts 133°
2026-05-04 05:17 60.09946 -3.84524 36863 ft 533 kts 133°
2026-05-04 05:18 60.05054 -3.73390 36976 ft 535 kts 133°
2026-05-04 05:18 60.02588 -3.67797 37336 ft 533 kts 133°
2026-05-04 05:18 60.00143 -3.62259 37822 ft 529 kts 133°
2026-05-04 05:19 59.97713 -3.56769 38269 ft 525 kts 133°
2026-05-04 05:19 59.95289 -3.51309 38640 ft 522 kts 133°
2026-05-04 05:19 59.92904 -3.45951 38857 ft 521 kts 133°
2026-05-04 05:19 59.90497 -3.40559 38893 ft 520 kts 133°
2026-05-04 05:20 59.85661 -3.29762 38902 ft 520 kts 134°
2026-05-04 05:20 59.80868 -3.19103 38894 ft 518 kts 134°
2026-05-04 05:21 59.76041 -3.08427 38909 ft 518 kts 134°
2026-05-04 05:21 59.71235 -2.97844 38911 ft 518 kts 134°
2026-05-04 05:22 59.66391 -2.87227 38920 ft 518 kts 134°
2026-05-04 05:22 59.61539 -2.76640 38920 ft 518 kts 134°
2026-05-04 05:23 59.56715 -2.66164 38901 ft 518 kts 134°
2026-05-04 05:23 59.51856 -2.55660 38933 ft 517 kts 134°
2026-05-04 05:24 59.46992 -2.45187 38930 ft 516 kts 134°
2026-05-04 05:24 59.42161 -2.34841 38930 ft 516 kts 135°
2026-05-04 05:25 59.37285 -2.24447 38928 ft 516 kts 135°
2026-05-04 05:25 59.32402 -2.14083 38941 ft 516 kts 135°
2026-05-04 05:26 59.27508 -2.03747 38918 ft 514 kts 135°
2026-05-04 05:26 59.22679 -1.93590 38939 ft 513 kts 135°
2026-05-04 05:28 59.03174 -1.53015 38950 ft 512 kts 135°
2026-05-04 05:29 58.98264 -1.42930 38941 ft 513 kts 135°
2026-05-04 05:29 58.93348 -1.32855 38952 ft 513 kts 135°
2026-05-04 05:31 58.73692 -0.93038 38958 ft 512 kts 136°
2026-05-04 05:32 58.68739 -0.83116 38958 ft 512 kts 136°
2026-05-04 05:33 58.61327 -0.68349 38961 ft 512 kts 136°
2026-05-04 05:33 58.56362 -0.58512 38961 ft 512 kts 136°
2026-05-04 05:34 58.51391 -0.48705 38964 ft 512 kts 136°
2026-05-04 05:34 58.46442 -0.38984 38960 ft 511 kts 136°
2026-05-04 05:35 58.41493 -0.29304 38965 ft 507 kts 136°
2026-05-04 05:35 58.37382 -0.21294 38965 ft 507 kts 136°
2026-05-04 05:36 58.32432 -0.11689 38973 ft 507 kts 137°
2026-05-04 05:36 58.27478 -0.02118 38978 ft 507 kts 137°
2026-05-04 05:37 58.22543 0.07387 38980 ft 504 kts 137°
2026-05-04 05:37 58.17640 0.16770 38956 ft 501 kts 137°
2026-05-04 05:38 58.10266 0.30814 38974 ft 500 kts 137°
2026-05-04 05:38 58.05346 0.40130 38976 ft 500 kts 137°
2026-05-04 05:39 57.97785 0.53569 38982 ft 497 kts 143°
2026-05-04 05:40 57.89251 0.64602 38983 ft 494 kts 154°
2026-05-04 05:40 57.83110 0.70435 38988 ft 493 kts 158°
2026-05-04 05:41 57.76961 0.75996 38989 ft 493 kts 158°
2026-05-04 05:41 57.70768 0.81609 38989 ft 493 kts 158°
2026-05-04 05:42 57.64616 0.87162 38965 ft 493 kts 158°
2026-05-04 05:42 57.58432 0.92714 38992 ft 492 kts 158°
2026-05-04 05:43 57.52250 0.98254 38995 ft 492 kts 158°
2026-05-04 05:45 57.27538 1.20166 39002 ft 492 kts 157°
2026-05-04 05:47 57.02811 1.41752 39003 ft 491 kts 157°
2026-05-04 05:47 56.96673 1.47065 39003 ft 491 kts 157°
2026-05-04 05:48 56.90483 1.52417 39012 ft 491 kts 157°
2026-05-04 05:48 56.84288 1.57746 39011 ft 491 kts 158°
2026-05-04 05:49 56.78139 1.63006 39012 ft 489 kts 157°
2026-05-04 05:49 56.71960 1.68273 39016 ft 488 kts 158°
2026-05-04 05:51 56.47362 1.89042 39021 ft 487 kts 158°
2026-05-04 05:52 56.41192 1.94206 39018 ft 487 kts 158°
2026-05-04 05:52 56.35057 1.99322 39024 ft 487 kts 158°
2026-05-04 05:54 56.10449 2.19652 39018 ft 486 kts 158°
2026-05-04 05:55 56.04289 2.24693 39025 ft 486 kts 158°
2026-05-04 05:55 55.98122 2.29723 39024 ft 486 kts 158°
2026-05-04 05:56 55.91959 2.34721 39028 ft 485 kts 159°
2026-05-04 05:56 55.85708 2.38988 39031 ft 483 kts 165°
2026-05-04 05:57 55.79265 2.42396 39032 ft 482 kts 166°
2026-05-04 05:57 55.72815 2.45809 39021 ft 482 kts 166°
2026-05-04 05:58 55.66424 2.49178 39026 ft 482 kts 166°
2026-05-04 05:58 55.59975 2.52561 39029 ft 482 kts 166°
2026-05-04 05:59 55.53533 2.55924 39028 ft 482 kts 166°
2026-05-04 05:59 55.47133 2.59252 39023 ft 482 kts 166°
2026-05-04 06:00 55.40691 2.62591 39026 ft 481 kts 166°
2026-05-04 06:00 55.34268 2.65910 39023 ft 481 kts 166°
2026-05-04 06:01 55.27831 2.69224 39027 ft 481 kts 166°
2026-05-04 06:03 55.02257 2.82281 39020 ft 478 kts 166°
2026-05-04 06:05 54.73481 2.96764 39014 ft 478 kts 166°
2026-05-04 06:06 54.67119 2.99939 39015 ft 477 kts 166°
2026-05-04 06:06 54.60728 3.03116 39014 ft 477 kts 166°
2026-05-04 06:07 54.54345 3.06278 39015 ft 477 kts 166°
2026-05-04 06:07 54.47960 3.09431 39016 ft 477 kts 166°
2026-05-04 06:08 54.41610 3.12557 39012 ft 476 kts 167°
2026-05-04 06:08 54.35224 3.15691 39014 ft 476 kts 167°
2026-05-04 06:09 54.28842 3.18812 39010 ft 476 kts 167°
2026-05-04 06:11 54.03420 3.31145 39009 ft 474 kts 167°
2026-05-04 06:13 53.78094 3.43270 38996 ft 473 kts 167°
2026-05-04 06:14 53.55830 3.52685 38998 ft 469 kts 175°
2026-05-04 06:15 53.49355 3.54120 38994 ft 469 kts 174°
2026-05-04 06:15 53.42872 3.55592 38994 ft 469 kts 174°
2026-05-04 06:16 53.36431 3.57343 38992 ft 470 kts 172°
2026-05-04 06:16 53.30020 3.59210 38981 ft 469 kts 173°
2026-05-04 06:17 53.23590 3.61064 38989 ft 468 kts 173°
2026-05-04 06:17 53.17161 3.62917 38983 ft 467 kts 173°
2026-05-04 06:18 53.10786 3.64755 38987 ft 467 kts 172°
2026-05-04 06:20 52.87518 3.83415 38983 ft 478 kts 141°
2026-05-04 06:21 52.75131 4.01695 38983 ft 478 kts 141°
2026-05-04 06:22 52.70155 4.08997 38975 ft 478 kts 142°
2026-05-04 06:25 52.45646 4.72925 38977 ft 490 kts 121°
2026-05-04 06:26 52.42548 4.82833 38975 ft 490 kts 121°
2026-05-04 06:26 52.39436 4.92761 38979 ft 488 kts 121°
2026-05-04 06:27 52.31627 5.17447 38971 ft 489 kts 122°
2026-05-04 06:28 52.28479 5.27329 38974 ft 489 kts 122°
2026-05-04 06:28 52.25325 5.37192 38976 ft 489 kts 122°
2026-05-04 06:29 52.22155 5.47073 38966 ft 489 kts 122°
2026-05-04 06:29 52.19005 5.56846 38977 ft 489 kts 122°
2026-05-04 06:30 52.15813 5.66700 38979 ft 489 kts 122°
2026-05-04 06:30 52.12654 5.76430 38979 ft 486 kts 123°
2026-05-04 06:31 52.09475 5.86164 38981 ft 485 kts 123°
2026-05-04 06:31 52.06308 5.95821 38978 ft 486 kts 123°
2026-05-04 06:33 51.91358 6.31746 38982 ft 472 kts 142°
2026-05-04 06:34 51.86360 6.38629 38981 ft 470 kts 147°
2026-05-04 06:34 51.81253 6.45273 38314 ft 471 kts 147°
2026-05-04 06:35 51.78697 6.48598 37628 ft 470 kts 147°
2026-05-04 06:36 51.60871 6.71660 35418 ft 472 kts 147°
2026-05-04 06:37 51.58303 6.74966 35070 ft 471 kts 147°
2026-05-04 06:37 51.55725 6.78279 34635 ft 471 kts 147°
2026-05-04 06:37 51.53158 6.81570 34136 ft 471 kts 147°
2026-05-04 06:37 51.50588 6.84858 33535 ft 471 kts 147°
2026-05-04 06:38 51.48054 6.88098 32928 ft 471 kts 147°
2026-05-04 06:38 51.45478 6.91386 32300 ft 471 kts 147°
2026-05-04 06:40 51.27431 7.13915 28337 ft 461 kts 152°
2026-05-04 06:40 51.24763 7.16556 27905 ft 455 kts 155°
2026-05-04 06:40 51.21981 7.18926 27488 ft 449 kts 158°
2026-05-04 06:40 51.19185 7.21136 27088 ft 446 kts 159°
2026-05-04 06:41 51.16409 7.23327 26678 ft 443 kts 158°
2026-05-04 06:41 51.13654 7.25504 26341 ft 440 kts 158°
2026-05-04 06:41 51.10913 7.27681 26018 ft 438 kts 158°
2026-05-04 06:41 51.08237 7.29873 25685 ft 436 kts 157°
2026-05-04 06:42 51.05549 7.32100 25359 ft 434 kts 157°
2026-05-04 06:42 51.02882 7.34311 25009 ft 431 kts 157°
2026-05-04 06:42 51.00223 7.36511 24518 ft 429 kts 157°
2026-05-04 06:44 50.81863 7.51558 20055 ft 420 kts 156°
2026-05-04 06:44 50.79301 7.53650 19426 ft 418 kts 156°
2026-05-04 06:44 50.76715 7.55755 18841 ft 416 kts 157°
2026-05-04 06:45 50.74153 7.57837 18419 ft 411 kts 156°
2026-05-04 06:45 50.71618 7.59896 17931 ft 406 kts 157°
2026-05-04 06:45 50.69122 7.61920 17482 ft 400 kts 156°
2026-05-04 06:45 50.66655 7.63919 17048 ft 395 kts 156°
2026-05-04 06:46 50.64222 7.65887 16629 ft 390 kts 156°
2026-05-04 06:46 50.61819 7.67828 16204 ft 385 kts 156°
2026-05-04 06:46 50.59472 7.69720 15801 ft 381 kts 156°
2026-05-04 06:46 50.57125 7.71615 15410 ft 377 kts 156°
2026-05-04 06:48 50.41409 7.85185 12748 ft 370 kts 146°
2026-05-04 06:48 50.39369 7.87695 12780 ft 373 kts 144°
2026-05-04 06:49 50.37326 7.90226 12790 ft 375 kts 144°
2026-05-04 06:50 50.23136 8.07764 12035 ft 370 kts 144°
2026-05-04 06:51 50.21115 8.10256 12032 ft 370 kts 144°
2026-05-04 06:51 50.19090 8.12746 12037 ft 370 kts 144°
2026-05-04 06:51 50.17066 8.15232 12040 ft 370 kts 144°
2026-05-04 06:51 50.15036 8.17720 12043 ft 370 kts 144°
2026-05-04 06:52 50.13034 8.20173 12037 ft 370 kts 144°
2026-05-04 06:52 50.11010 8.22651 12047 ft 369 kts 144°
2026-05-04 06:52 50.08989 8.25171 12040 ft 369 kts 142°
2026-05-04 06:52 50.07093 8.27962 12046 ft 372 kts 136°
2026-05-04 06:53 50.05398 8.30997 12006 ft 368 kts 131°
2026-05-04 06:53 50.03834 8.34100 11518 ft 367 kts 130°
2026-05-04 06:53 50.02271 8.37251 10986 ft 366 kts 130°
2026-05-04 06:53 50.00715 8.40385 10626 ft 366 kts 130°
2026-05-04 06:54 49.99149 8.43523 10250 ft 365 kts 130°
2026-05-04 06:54 49.97600 8.46619 9864 ft 360 kts 130°
2026-05-04 06:54 49.96070 8.49671 9464 ft 355 kts 130°
2026-05-04 06:54 49.94798 8.52938 9027 ft 355 kts 111°
2026-05-04 06:55 49.94535 8.56724 8608 ft 354 kts 83°
2026-05-04 06:55 49.95230 8.60315 8267 ft 349 kts 69°
2026-05-04 06:55 49.96152 8.63774 7978 ft 342 kts 67°
2026-05-04 06:55 49.97057 8.67155 7719 ft 334 kts 68°
2026-05-04 06:56 49.97909 8.70480 7458 ft 327 kts 69°
2026-05-04 06:57 50.03088 8.92227 5687 ft 287 kts 70°
2026-05-04 06:58 50.03783 8.95131 5422 ft 283 kts 70°
2026-05-04 06:58 50.04462 8.97933 5172 ft 278 kts 69°
2026-05-04 06:58 50.05137 9.00706 5009 ft 268 kts 69°
2026-05-04 06:58 50.05783 9.03349 5002 ft 253 kts 69°
2026-05-04 06:59 50.06682 9.05637 4988 ft 248 kts 40°
2026-05-04 06:59 50.08175 9.06899 5002 ft 245 kts
2026-05-04 06:59 50.09846 9.06824 5013 ft 241 kts 345°
2026-05-04 06:59 50.11463 9.06264 5013 ft 241 kts 344°
2026-05-04 07:01 50.12143 8.93205 4956 ft 225 kts 249°
2026-05-04 07:01 50.11639 8.90871 4682 ft 225 kts 251°
2026-05-04 07:02 50.11154 8.88577 4424 ft 220 kts 250°
2026-05-04 07:02 50.10660 8.86371 4100 ft 216 kts 249°
2026-05-04 07:02 50.10153 8.84209 3789 ft 206 kts 248°
2026-05-04 07:02 50.09664 8.82175 3510 ft 194 kts 248°
2026-05-04 07:03 50.09206 8.80286 3228 ft 177 kts 248°
2026-05-04 07:03 50.08790 8.78573 3041 ft 163 kts 248°
2026-05-04 07:03 50.08395 8.76946 2807 ft 158 kts 248°
2026-05-04 07:03 50.08011 8.75363 2621 ft 157 kts 248°
2026-05-04 07:04 50.07626 8.73770 2450 ft 157 kts 248°
2026-05-04 07:04 50.07242 8.72181 2238 ft 156 kts 249°
2026-05-04 07:04 50.06861 8.70594 2026 ft 156 kts 248°
2026-05-04 07:04 50.06561 8.68978 1817 ft 155 kts 260°
2026-05-04 07:05 50.06418 8.67307 1548 ft 155 kts 260°
2026-05-04 07:05 50.06187 8.65684 1318 ft 153 kts 249°
2026-05-04 07:05 50.05807 8.64155 1119 ft 153 kts 249°
2026-05-04 07:05 50.05441 8.62595 945 ft 153 kts 248°
2026-05-04 07:06 50.04705 8.59509 542 ft 151 kts 248°
2026-05-04 07:06 50.04336 8.57982 394 ft 146 kts 248°
2026-05-04 07:06 50.04016 8.56641 368 ft 110 kts 252°
2026-05-04 07:07 50.03817 8.55786 363 ft 59 kts 249°
2026-05-04 07:08 50.03728 8.54843 361 ft 1 kts 314°
2026-05-04 07:09 50.03740 8.54828 363 ft 3 kts 323°
2026-05-04 07:09 50.03757 8.54816 362 ft 3 kts 354°
2026-05-04 07:09 50.03764 8.54817 361 ft 0 kts 13°
2026-05-04 07:09 50.03771 8.54823 362 ft 3 kts 33°
2026-05-04 07:10 50.03795 8.54888 362 ft 12 kts 69°
2026-05-04 07:10 50.03829 8.55029 364 ft 15 kts 69°
2026-05-04 07:12 50.04138 8.55944 365 ft 0 kts 340°
2026-05-04 07:12 50.04141 8.55943 365 ft 1 kts 340°
2026-05-04 07:12 50.04149 8.55938 365 ft 0 kts 341°
2026-05-04 07:13 50.04150 8.55937 361 ft 1 kts 341°
2026-05-04 07:14 50.04262 8.55970 371 ft 6 kts
2026-05-04 07:14 50.04317 8.55943 367 ft 9 kts 340°
2026-05-04 07:15 50.04385 8.55911 368 ft 11 kts 352°
2026-05-04 07:15 50.04470 8.55931 369 ft 14 kts 14°
2026-05-04 07:15 50.04560 8.56002 369 ft 17 kts 59°
2026-05-04 07:15 50.04608 8.56187 368 ft 20 kts 69°
2026-05-04 07:16 50.04654 8.56377 368 ft 9 kts 69°
2026-05-04 07:16 50.04691 8.56430 367 ft 7 kts 343°
2026-05-04 07:16 50.04721 8.56409 365 ft 5 kts 339°
2026-05-04 07:16 50.04743 8.56396 370 ft 2 kts 339°
2026-05-04 07:17 50.04748 8.56393 370 ft 0 kts 339°